Location: Harbor Island
(32.3990°N, 80.4435°W)
Time: 13:23:12
(UTC-04:00)

Daily predictions for brighter satellites

Satellite Brightness Start Highest point End
(mag) Time Altitude Azimuth Time Altitude Azimuth Time Altitude Azimuth
ATLAS CENTAUR R/B 2.9 19:25:42 10° SSW 19:29:20 57° ESE 19:39:32 10° NE
Cosmos 2219 Rocket 3.9 19:29:15 10° SW 19:34:26 38° WNW 19:39:39 10° N
Cosmos 2233 Rocket 4.1 19:29:24 10° S 19:35:41 85° E 19:42:01 10° N
GPS 2-05 Rocket1 3.3 19:34:17 10° W 19:37:33 56° SSW 19:40:56 10° ESE
Cosmos 921 Rocket 2.9 19:34:24 10° NNW 19:38:36 87° ENE 19:42:46 10° SSE
USA 215 3.3 19:34:27 10° NE 19:41:01 89° NW 19:47:33 10° SW
Cosmos 1441 Rocket 3.1 19:38:05 10° N 19:41:49 68° E 19:45:31 10° SSE
Cosmos 2278 Rocket 2.2 19:37:05 10° NNW 19:42:44 67° ENE 19:48:20 10° SSE
Meteor 2-5 Rocket 3.7 19:38:22 10° N 19:44:00 83° E 19:49:32 10° S
Meteor 1-29 4.2 19:43:06 10° NE 19:45:54 22° E 19:48:40 10° SSE
Cosmos 2297 4.4 19:41:11 10° N 19:46:16 33° ENE 19:51:17 10° SE
Meteor 1-24 Rocket 3.9 19:43:09 10° N 19:48:35 48° E 19:53:48 10° SSE
Meteor 1-28 Rocket 3.1 19:45:06 10° NNE 19:48:48 66° E 19:52:28 10° S
SJ-6B 3.0 19:45:42 10° SSE 19:49:28 51° ENE 19:53:23 10° N
Cosmos 1378 4.0 19:46:39 10° NNE 19:49:56 29° E 19:53:12 10° SE
Cosmos 1707 2.7 19:48:47 10° N 19:52:39 89° E 19:56:30 10° S
Cosmos-2242 4.2 19:49:55 10° SE 19:53:12 21° E 19:56:30 10° NE
Cosmos 1758 4.3 19:53:36 10° SE 19:56:57 25° E 20:00:20 10° NE
Cosmos 192 4.4 19:53:25 10° S 19:58:14 55° ESE 20:03:05 10° NNE
OAO 1 Rocket 4.5 19:53:29 10° WSW 19:58:51 82° SSE 20:03:35 13° ENE
Abrixas 4.2 19:57:36 10° S 19:59:35 16° SE 20:00:12 16° ESE
Cosmos 1603 4.5 19:54:50 10° SSE 19:59:39 29° ESE 20:04:30 10° NE
Helios 1B rocket 2.5 19:58:37 10° NNE 20:02:38 52° E 20:06:38 10° S
SEDSat Delta rocket 4.1 19:58:03 10° WSW 20:04:45 74° SSE 20:10:14 16° E
SeaSat 1 3.4 20:01:52 10° NE 20:05:58 26° ESE 20:10:03 10° SSE
Resurs 01 Rocket 1.9 20:02:35 10° SE 20:06:49 44° ENE 20:11:03 10° N
Cosmos 1408 Rocket 4.2 20:03:25 10° NNE 20:07:19 32° E 20:11:11 10° SE
SAR-Lupe-4 4.0 20:05:14 10° S 20:08:45 63° WSW 20:12:18 10° NNW
NOSS 3-2 (A) 3.6 20:02:51 10° SSW 20:08:49 79° WNW 20:15:17 10° NNE
Resurs 1-3 4.1 20:06:52 10° SE 20:10:54 37° ENE 20:14:56 10° N
Okean 3 Rocket 3.7 20:09:17 10° N 20:13:51 82° W 20:18:22 10° S
CZ-4B DEB 4.3 20:15:35 20° ENE 20:15:35 20° ENE 20:17:38 10° NNE
ASC 2 Rocket 4.3 20:13:04 10° WSW 20:16:36 26° S 20:18:42 17° SE
Spot 1 4.2 20:12:08 10° SSE 20:17:01 74° ENE 20:21:38 10° N
Atlas Centaur 2 3.2 20:15:09 10° W 20:23:39 68° SSW 20:28:58 22° ESE
ATLAS CENTAUR R/B 1.2 20:22:01 10° NNW 20:26:07 85° WSW 20:28:47 19° SSE
BREEZE-M DEB (TANK) 4.4 20:22:17 10° NW 20:26:30 81° SW 20:42:52 10° SE
GPS 2-04 Rocket1 3.2 20:23:57 10° SW 20:27:10 34° SSE 20:27:40 33° SE
ALOS 2.6 20:26:02 22° SE 20:28:36 41° ENE 20:32:59 10° N
Cosmos 1269 Rocket 4.3 20:25:52 10° S 20:30:47 41° ESE 20:35:44 10° NNE
Cosmos 1743 Rocket 4.5 20:30:10 10° NNE 20:33:30 29° ENE 20:33:30 29° ENE
In-Cosmos 22 4.2 20:29:00 10° N 20:34:45 65° E 20:40:26 10° SSE
Nadezhda 4 Rocket 4.3 20:29:30 10° N 20:35:25 42° E 20:38:48 23° SE
Spot 2 Rocket 3.5 20:31:25 10° S 20:36:28 82° WSW 20:41:31 10° NNW
FREGAT/IRIS 4.4 20:33:40 10° SSW 20:36:30 33° W 20:39:21 10° NNW
Cosmos 1048 Rocket 4.3 20:32:44 10° S 20:37:42 41° ESE 20:42:37 10° NNE
ASTRO E2 2.6 20:33:55 10° W 20:37:57 78° S 20:38:55 50° ESE
Cosmos 2056 Rocket 4.2 20:39:00 10° NNW 20:44:18 56° WSW 20:49:34 10° S
OAO 3 Rocket 3.3 20:39:40 10° W 20:44:26 66° N 20:46:04 39° ENE
Helios 1A 3.2 20:40:30 10° S 20:44:39 69° WSW 20:48:49 10° NNW
NOSS 3-2 (C) 4.2 20:40:03 10° SW 20:45:53 53° NW 20:52:12 10° NNE
CENTAUR R/B 2.8 20:43:47 10° S 20:48:51 38° ESE 20:48:51 38° ESE
Cosmos 1634 Rocket 4.4 20:49:16 37° E 20:49:24 37° E 20:55:03 10° NNE
ATLAS 5 CENTAUR R/B 2.6 20:45:35 10° SW 20:50:09 50° WNW 20:55:03 10° NNE
CZ-2D R/B 3.6 20:52:08 51° NE 20:52:08 51° NE 20:55:22 10° N
Cosmos 1953 3.0 20:48:30 10° SSW 20:52:25 55° W 20:56:20 10° N
Gbstr 26 Del rocket 4.2 20:48:35 10° SSW 20:51:02 29° SSE 20:51:02 29° SSE
Meteosat 1 Rocket2 4.4 20:48:24 10° SW 20:53:25 29° SSE 20:53:29 29° SSE
ASTEX 1 3.2 20:49:36 10° N 20:54:31 74° E 20:59:23 10° S
SL-16 R/B 4.2 20:51:44 10° WSW 20:56:35 29° WNW 21:01:30 10° N
H-2A R/B 3.5 21:12:11 49° NNW 21:12:11 49° NNW 21:15:10 10° NNW
SL-8 R/B 3.9 21:14:27 10° WSW 21:19:08 65° NW 21:19:08 65° NW
FENGYUN 3A 4.5 21:25:39 24° SSW 21:28:36 48° W 21:33:48 10° NNW
SeaSat 1 4.1 21:39:05 10° N 21:43:25 32° WNW 21:47:46 10° WSW
Cosmos 2369 Rocket 3.8 21:41:12 10° N 21:43:36 25° N 21:43:36 25° N
SEDSat Delta rocket 4.3 21:44:41 10° W 21:50:22 63° WSW 21:50:22 63° WSW
BREEZE-M DEB (TANK) 4.4 21:52:09 10° SW 22:08:58 73° SW 22:08:58 73° SW
Atlas Centaur 2 4.0 22:05:44 10° W 22:11:38 33° SW 22:11:38 33° SW
